Regional Weather Roundup
Issued by NWS

Home | Current Version | Previous Version | Text Only | Print | Product List | Glossary Off
Versions: 1 2 3 4 5 6 7 8 9 10 11 12 13 14 15 16 17 18 19 20 21 22 23 24 25 26 27 28 29 30 31 32 33 34 35 36 37 38 39 40 41 42 43 44 45 46 47 48 49

000
ASUS45 KBOI 070210
RWRID

IDAHO REGIONAL WEATHER ROUNDUP
NATIONAL WEATHER SERVICE BOISE ID
700 PM MST SAT FEB 06 2016

NOTE: "FAIR" INDICATES FEW OR NO CLOUDS BELOW 12000 FEET
WITH NO SIGNIFICANT WEATHER AND/OR OBSTRUCTIONS TO VISIBILITY

IDZ012-014-070300-
SOUTHWEST IDAHO


CITY           SKY/WX    TMP DP  RH WIND       PRES   REMARKS
BOISE          CLOUDY    39  32  76 W6        30.43S WCI  35
CALDWELL       CLOUDY    36  32  85 W6        30.46S WCI  31
MOUNTAIN HOME  CLOUDY    37  37 100 NW8       30.42R WCI  31
$$

IDZ016-017-070300-
SOUTHCENTRAL IDAHO


CITY           SKY/WX    TMP DP  RH WIND       PRES   REMARKS
BURLEY         CLOUDY    36  27  69 SW9       30.39R WCI  29
JEROME         CLEAR     36  25  64 CALM      30.41R
TWIN FALLS     CLOUDY    37  29  72 S13       30.40R WCI  29
$$

IDZ019>023-070300-
SOUTHEAST IDAHO


CITY           SKY/WX    TMP DP  RH WIND       PRES   REMARKS
IDAHO FALLS    CLOUDY    22  18  85 N6        30.39R WCI  14
POCATELLO      CLOUDY    34  24  67 S18       30.39R WCI  23
REXBURG        CLOUDY    21  18  88 E5        30.38R WCI  15
$$

IDZ006-010-011-018-031-032-070300-
CENTRAL IDAHO MOUNTAINS


CITY           SKY/WX    TMP DP  RH WIND       PRES   REMARKS
MCCALL         CLOUDY    27  24  89 CALM      30.38R
HAILEY         PTCLDY    25  21  86 NW6       30.36S WCI  18
STANLEY          N/A     30  19  63 CALM      30.35R
SALMON         PTCLDY    27  21  80 CALM      30.33R
CHALLIS        CLOUDY    29  21  72 CALM      30.31R
$$

IDZ002-004-006-007-026-070300-
NORTHERN IDAHO


CITY           SKY/WX    TMP DP  RH WIND       PRES   REMARKS
LEWISTON       CLOUDY    45  30  55 E3        30.42R
LOWELL           N/A     38  35  89 N6        30.45R WCI  33
COEUR D`ALENE  PTCLDY    37  27  65 S7        30.36S WCI  32
MULLAN PASS    CLOUDY    22  21  96 VRB6      30.26R FOG     WCI  14
$$



USA.gov is the U.S. government's official web portal to all federal, state and local government web resources and services.